Regional Weather Roundup
Issued by NWS

Home | Current Version | Previous Version | Graphics & Text | Print | Product List | Glossary On
Versions: 1 2 3 4 5 6 7 8 9 10 11 12 13 14 15 16 17 18 19 20 21 22 23 24 25 26 27
000
ASUS45 KBOU 282007
RWRCO

WEATHER ROUNDUP FOR COLORADO
NATIONAL WEATHER SERVICE DENVER/BOULDER CO
200 PM MDT SUN AUG 28 2016

NOTE: "FAIR" INDICATES FEW OR NO CLOUDS BELOW 12000 FEET WITH NO
SIGNIFICANT WEATHER AND/OR OBSTRUCTIONS TO VISIBILITY.

COZ001>005-013-030-031-282100-
...NORTHWEST COLORADO...

CITY           SKY/WX    TMP DP  RH WIND       PRES   REMARKS
CRAIG          FAIR      80  27  14 CALM      30.25F
HAYDEN         FAIR      77  30  18 W3G17     30.27F
MEEKER         FAIR      79  37  22 VRB7      30.28S
MOUNT WERNER   NOT AVBL
STEAMBOAT SPGS FAIR      76  29  17 SW7       30.28F
WALDEN         FAIR      70  25  18 E7        30.38S
$$

COZ006>008-011-282100-
...WEST CENTRAL VALLEYS...

CITY           SKY/WX    TMP DP  RH WIND       PRES   REMARKS
GRAND JUNCTION PTSUNNY   71  49  45 NW3       30.24F
MONTROSE       FAIR      75  46  35 NW8       30.27F
EAGLE          MOSUNNY   75  39  27 S9        30.30F
RIFLE          FAIR      76  48  37 VRB6      30.24F
DELTA          FAIR      81  44  26 S7        30.23S THUNDER
NUCLA          FAIR     N/A N/A N/A N12       30.34R
$$

COZ017>023-064>068-282100-
...SOUTHWEST COLORADO...

CITY           SKY/WX    TMP DP  RH WIND       PRES   REMARKS
DURANGO        FAIR      70  38  31 CALM      30.30F
CORTEZ         FAIR      69  50  50 W7        30.28F
PAGOSA SPRINGS FAIR      69  33  26 SW6       30.36F
TELLURIDE      FAIR      62  46  55 W13       30.45F THUNDER
WOLF CREEK PAS FAIR      46  34  61 S12G17    30.64S
$$

COZ009-010-012-014-032>034-037-058>063-282100-
...CENTRAL COLORADO...

CITY           SKY/WX    TMP DP  RH WIND       PRES   REMARKS
ASPEN          PTSUNNY   68  41  37 CALM      30.35F
BUENA VISTA    FAIR      71  34  25 NE3       30.35S
COPPER MTN     CLOUDY    54  37  54 N5        30.63F
BERTHOUD PASS  CLOUDY    45  32  61 MISG      30.67S
COTTONWOOD PAS PTSUNNY   66  36  32 E5        30.48S
GUNNISON       FAIR      68  41  37 S6        30.37F
KREMMLING      CLOUDY    73  34  23 S13       30.35R
LEADVILLE      PTSUNNY   59  36  42 CALM      30.47F
MONARCH PASS   CLOUDY    50  36  57 NE3       30.72S
SALIDA         FAIR      74  36  25 NE6       30.39F
SUNLIGHT       FAIR      52  43  71 SE6       30.60R
WILKERSON PASS CLOUDY    48  34  57 E3        30.62R THUNDER
$$

COZ069>075-282100-
...SAN LUIS VALLEY/SANGRE DE CRISTO MOUNTAINS...

CITY           SKY/WX    TMP DP  RH WIND       PRES   REMARKS
ALAMOSA        FAIR      73  39  29 CALM      30.33F
LA VETA PASS   PTSUNNY   61  32  33 SW3       30.50S
SAGUACHE       FAIR      70  36  28 SE7       30.36F
$$

COZ035-036-038>040-282100-
...NORTHERN COLORADO FRONT RANGE...

CITY           SKY/WX    TMP DP  RH WIND       PRES   REMARKS
DENVER INTL AP FAIR      86  37  17 NE8       30.17S
DMNS CITY PARK   N/A     85  35  16 SW2       30.15F
AURORA         PTSUNNY   85  36  17 E8        30.18F
FRONT RANGE AP PTSUNNY   86  36  16 N7        30.18F
ERIE MUNI ARPT FAIR      86  28  12 NE10      30.14F
BOULDER MUN AP FAIR      82  34  17 E7        30.16S
CENTENNIAL     FAIR      83  35  18 NE6       30.19F
BROOMFIELD     PTSUNNY   84  32  15 NE10      30.19S
FORT COLLINS   FAIR      88  36  15 E9        30.11F
LONGMONT       FAIR      90  34  14 NE6       30.15F
$$

COZ041-046-047-076>085-087-088-282100-
...PIKES PEAK/PALMER DIVIDE AND SOUTHERN FOOTHILLS...

CITY           SKY/WX    TMP DP  RH WIND       PRES   REMARKS
COLO. SPRINGS  TSTM      75  44  33 NW13      30.22S
A. F. ACADEMY  PTSUNNY   71  47  43 NE14      30.26R
SCHRIEVER AFB  NOT AVBL
ELLICOTT       NOT AVBL
FALCON         CLOUDY    72  40  31 W15G23    30.28R
FORT CARSON    FAIR      82  43  25 N10       30.19R
LIMON          FAIR      81  41  24 NE13      30.16S
MONUMENT HILL  CLOUDY    70  37  30 N7        30.30S
TRINIDAD       FAIR      83  40  21 VRB3      30.18F
$$

COZ042>045-048>051-090-091-282100-
...NORTHEAST COLORADO...

CITY           SKY/WX    TMP DP  RH WIND       PRES   REMARKS
GREELEY ARPT   FAIR      84  45  24 NE7       30.12F
AKRON          FAIR      84  45  25 SE7       30.13S
BURLINGTON     FAIR      84  51  31 SE13G23   30.13F
WRAY           CLOUDY    88  50  27 S13G23    30.10S
STERLING       FAIR      90  45  20 CALM      30.07F
HOLYOKE        FAIR      88  54  31 SE12G17   30.09F
FORT MORGAN    FAIR      90  37  15 SE6       30.11F
$$

COZ086-089-092>099-282100-
...SOUTHEAST COLORADO...

CITY           SKY/WX    TMP DP  RH WIND       PRES   REMARKS
PUEBLO         FAIR      88  44  21 S6        30.10F
LA JUNTA       FAIR      87  46  24 SW5       30.09F
LAMAR          FAIR      89  57  33 E9G22     30.06F
SPRINGFIELD      N/A     82  58  43 SE18G24   30.11F
$$




USA.gov is the U.S. government's official web portal to all federal, state and local government web resources and services.